Location: PSU-Greenbush Astrophysical Observatory
(37.5140°N, 94.9880°W)
Time: 20:36:46
(UTC-06:00)

deb Explorer IX - Pass Details

Date: 25 January 2020
Orbit: 549 x 1099 km, 38.8° (Epoch: 25 February)

Event Time Altitude Azimuth Distance (km) Brightness Sun altitude
Rises 01:49:56 0° 282° (WNW) 3,905 - -64.9°
Reaches altitude 10° 01:52:43 10° 282° (WNW) 2,948 - -64.5°
Maximum altitude 02:00:03 84° 196° (SSW) 1,071 - -63.4°
Drops below altitude 10° 02:06:51 10° 108° (ESE) 2,742 - -62.3°
Sets 02:09:21 0° 108° (ESE) 3,619 - -61.9°
